Simultaneous Nadir Overpasses (SNOs) Predictions

Prediction of SNOs between NOAA-19 and METOP-C Satellite Orbit:

Table of predicted SNOs for the next 14.0 days since TLE Epoch: 9/27/2019
Index Date (NOAA-19) Time (NOAA-19) Lat,Lon (NOAA-19) SZA (NOAA-19 ) Date (METOP-C) Time (METOP-C) Lat,Lon (METOP-C) SZA (METOP-C ) Distance(km) Time Diff (sec)
1 10/08/2019 12:43:10 -79.53,-172.82 93.94 10/08/2019 12:44:15 -79.56,-172.72 93.89 3.49 65
2 10/08/2019 13:34:09 79.54, -5.65 86.08 10/08/2019 13:34:55 79.53, -5.59 86.09 1.33 46
3 10/08/2019 14:25:11 -79.54, 161.61 93.91 10/08/2019 14:25:38 -79.51, 161.55 93.93 3.30 27
4 10/08/2019 15:16:09 79.52, -30.94 86.10 10/08/2019 15:16:17 79.52, -31.05 86.10 2.25 8
5 10/08/2019 16:07:11 -79.52, 136.33 93.89 10/08/2019 16:06:59 -79.53, 136.36 93.88 1.64 12
6 10/08/2019 16:58:10 79.53, -56.51 86.13 10/08/2019 16:57:39 79.51, -56.50 86.10 2.38 31
7 10/08/2019 17:49:12 -79.53, 110.76 93.86 10/08/2019 17:48:21 -79.52, 110.91 93.87 3.22 51




NCC Satellite Simultaneous Nadir Overpasses (SNOs) Prediction Service
